#timestamp,LO_Frequency,Hit,StdDev 
1596633875.7,286046979.1,P
1596633895.5,286046979.8,P
1596633915.3,286046979.5,P
1596633935.2,286046979.8,Y
1596633955.0,286046999.3,P
1596633955.9,286046999.3,N
1596633975.7,286046999.4,N
1596633995.6,286046996.6,N
1596634015.4,286046996.7,N
1596634035.3,286046997.0,N
1596634055.1,286046997.3,N
1596634056.0,286046997.3,N
1596634075.8,286046997.5,N
1596634095.7,286046995.4,N
1596634115.5,286046998.0,N
1596634135.3,286046995.1,N
1596634155.2,286046997.4,N
1596634175.0,286046997.9,N
1596634175.9,286046997.9,N
1596634195.8,286046994.9,N
1596634215.6,286046995.6,N
1596634235.4,286046995.5,N
1596634255.3,286046995.5,N
1596634275.1,286046995.5,N
1596634295.9,286046996.1,N
1596634315.7,286046996.0,N
1596634335.5,286046996.0,N
1596634355.4,286046993.7,N
1596634375.2,286046994.1,N
1596634395.0,286046994.6,N
1596634395.9,286046994.6,N
1596634415.8,286046994.3,N
1596634435.6,286046994.3,N
1596634455.5,286046994.1,N
1596634475.3,286046994.2,Y
1596634495.1,286046997.2,P
1596634515.9,286046996.7,P
1596634535.7,286046997.7,P
1596634555.5,286046997.6,Y
1596634575.4,286046999.3,P
1596634595.2,286046998.5,N
1596634615.1,286046998.3,N
1596634616.0,286046998.3,N
1596634635.8,286046998.7,N
1596634655.6,286046998.4,N
1596634675.5,286046996.5,Y
1596634695.3,286047000.9,P
1596634715.2,286047001.0,N
1596634735.9,286047001.0,N
1596634755.7,286046998.6,N
1596634775.6,286046998.7,N
1596634795.4,286046999.0,N
1596634815.2,286046996.6,N
1596634835.1,286046999.6,N
1596634836.0,286046999.6,N
1596634855.8,286046999.5,N
1596634875.7,286046999.1,N
1596634895.5,286046999.2,N
1596634915.3,286046999.4,N
1596634935.2,286046999.5,N
1596634955.0,286046997.1,N
1596634955.9,286046997.1,N
1596634975.7,286046997.1,N
1596634995.6,286046997.7,N
1596635015.4,286046996.9,N
1596635035.3,286046997.0,N
1596635055.1,286046997.7,N
1596635056.0,286046997.7,N
1596635075.8,286046997.1,N
1596635095.7,286046997.8,N
1596635115.5,286046997.9,N
1596635135.4,286046997.8,N
1596635155.2,286046994.9,Y
1596635175.0,286046997.1,P
1596635175.9,286046997.1,P
1596635195.8,286046997.3,P
1596635215.6,286046996.7,Y
1596635235.4,286046998.5,P
1596635255.3,286046998.6,N
1596635275.1,286046998.8,N
1596635295.9,286046999.3,N
1596635315.7,286046998.9,N
1596635335.5,286046998.6,N
1596635355.4,286046998.7,N
1596635375.2,286046999.4,N
1596635395.0,286046999.1,N
1596635396.0,286046999.1,N
1596635415.8,286046999.2,N
1596635435.6,286046996.5,Y
1596635455.5,286046999.4,P
1596635475.3,286046996.5,P
1596635495.1,286046996.8,N
1596635515.9,286046997.0,N
1596635535.7,286046996.8,N
1596635555.6,286046996.6,Y
1596635575.4,286047000.5,P
1596635595.2,286047000.9,N
1596635615.1,286047001.2,N
1596635616.0,286047001.2,N
1596635635.8,286046998.1,N
1596635655.6,286047000.8,N
1596635675.5,286046998.6,N
1596635695.3,286046998.3,N
1596635715.2,286047001.2,N
1596635735.9,286046999.3,N
1596635755.7,286046999.5,N
1596635805.6,286046997.1,E
1596635815.5,286046999.4,N
1596635835.4,286047001.1,P
1596635855.2,286046998.1,N
1596635875.0,286047001.0,N
1596635875.9,286047001.0,N
1596635895.8,286047000.6,N
1596635915.6,286047000.5,N
1596635935.5,286047001.2,N
1596635955.3,286046998.5,N
1596635975.1,286047000.6,N
1596635995.9,286047001.2,N
